TimeCET,TemperatureF,Dew PointF,Humidity,Sea Level PressureIn,VisibilityMPH,Wind Direction,Wind SpeedMPH,Gust SpeedMPH,PrecipitationIn,Events,Conditions,WindDirDegrees,DateUTC
1:00 AM,35,33,88,30.30,12,Calm,Calm,,,,,,2013-01-15 00:00:00
6:00 AM,30.2,30.2,100,30.21,5.6,Calm,Calm,-,N/A,,Unknown,0,2013-01-15 05:00:00
7:00 AM,29,28,92,30.34,6,SSW,2.3,,,,Scattered Clouds,200,2013-01-15 06:00:00
7:00 AM,30.2,30.2,100,30.21,6.2,Variable,1.2,-,N/A,,Partly Cloudy,0,2013-01-15 06:00:00
7:30 AM,30.2,28.4,93,30.21,6.2,Calm,Calm,-,N/A,,Partly Cloudy,0,2013-01-15 06:30:00
8:00 AM,30.2,28.4,93,30.21,6.2,Calm,Calm,-,N/A,,Partly Cloudy,0,2013-01-15 07:00:00
8:30 AM,28.4,28.4,100,30.24,6.2,Variable,1.2,-,N/A,,Partly Cloudy,0,2013-01-15 07:30:00
9:00 AM,28.4,28.4,100,30.24,6.2,Calm,Calm,-,N/A,,Partly Cloudy,0,2013-01-15 08:00:00
9:30 AM,30.2,30.2,100,30.24,5.0,Variable,1.2,-,N/A,,Partly Cloudy,0,2013-01-15 08:30:00
10:00 AM,32.0,32.0,100,30.24,5.0,Variable,1.2,-,N/A,,Partly Cloudy,0,2013-01-15 09:00:00
10:30 AM,35.6,33.8,93,30.24,5.0,Variable,1.2,-,N/A,,Partly Cloudy,0,2013-01-15 09:30:00
11:00 AM,35.6,33.8,93,30.24,6.2,Variable,2.3,-,N/A,,Partly Cloudy,0,2013-01-15 10:00:00
11:30 AM,39.2,35.6,87,30.24,6.2,Calm,Calm,-,N/A,,Partly Cloudy,0,2013-01-15 10:30:00
12:00 PM,44.6,37.4,76,30.24,6.2,Calm,Calm,-,N/A,,Partly Cloudy,0,2013-01-15 11:00:00
12:30 PM,44.6,37.4,76,30.21,6.2,Calm,Calm,-,N/A,,Partly Cloudy,0,2013-01-15 11:30:00
1:00 PM,46,37,63,30.25,16,WNW,3.5,,,,Scattered Clouds,290,2013-01-15 12:00:00
1:30 PM,46.4,39.2,76,30.21,6.2,Variable,2.3,-,N/A,,Partly Cloudy,0,2013-01-15 12:30:00
2:00 PM,46.4,39.2,76,30.18,6.2,WNW,4.6,-,N/A,,Partly Cloudy,290,2013-01-15 13:00:00
2:30 PM,48.2,39.2,71,30.18,6.2,WNW,4.6,-,N/A,,Partly Cloudy,300,2013-01-15 13:30:00
3:00 PM,50.0,39.2,66,30.18,6.2,Variable,2.3,-,N/A,,Partly Cloudy,0,2013-01-15 14:00:00
3:30 PM,50.0,37.4,62,30.15,6.2,Variable,2.3,-,N/A,,Partly Cloudy,0,2013-01-15 14:30:00
4:00 PM,50.0,39.2,66,30.15,6.2,West,8.1,-,N/A,,Partly Cloudy,280,2013-01-15 15:00:00
4:30 PM,51.8,39.2,62,30.15,6.2,Variable,6.9,18.4,N/A,,Scattered Clouds,0,2013-01-15 15:30:00
5:00 PM,50.0,39.2,66,30.18,6.2,West,6.9,-,N/A,,Scattered Clouds,280,2013-01-15 16:00:00
5:30 PM,48.2,35.6,62,30.18,6.2,North,13.8,-,N/A,,Partly Cloudy,350,2013-01-15 16:30:00
6:00 PM,46.4,35.6,66,30.18,6.2,North,10.4,-,N/A,,Partly Cloudy,350,2013-01-15 17:00:00
6:30 PM,46.4,35.6,66,30.21,6.2,NNW,15.0,-,N/A,,Partly Cloudy,340,2013-01-15 17:30:00
7:00 PM,44,34,59,30.25,19,NNW,15.0,,,,Scattered Clouds,330,2013-01-15 18:00:00
7:00 PM,44.6,35.6,71,30.21,6.2,NNW,13.8,-,N/A,,Partly Cloudy,330,2013-01-15 18:00:00
7:30 PM,44.6,35.6,71,30.21,6.2,NW,8.1,-,N/A,,Partly Cloudy,320,2013-01-15 18:30:00
8:00 PM,44.6,35.6,71,30.21,6.2,WNW,5.8,-,N/A,,Scattered Clouds,300,2013-01-15 19:00:00
8:30 PM,44.6,35.6,71,30.21,6.2,Variable,1.2,-,N/A,,Scattered Clouds,0,2013-01-15 19:30:00
9:00 PM,41.0,37.4,87,30.21,6.2,WSW,4.6,-,N/A,,Mostly Cloudy,240,2013-01-15 20:00:00
9:30 PM,42.8,37.4,81,30.24,6.2,SW,6.9,-,N/A,,Mostly Cloudy,230,2013-01-15 20:30:00
10:00 PM,42.8,39.2,87,30.24,6.2,Variable,2.3,-,N/A,,Mostly Cloudy,0,2013-01-15 21:00:00
10:30 PM,44.6,39.2,81,30.24,6.2,Variable,1.2,-,N/A,,Mostly Cloudy,0,2013-01-15 21:30:00
11:00 PM,44.6,41.0,87,30.24,6.2,Variable,1.2,-,N/A,,Mostly Cloudy,0,2013-01-15 22:00:00